This demonstration page uses our WeatherBlox Daily Observations layout. Learn more.

Left ArrowRight Arrow

39.92423, -83.80882

Hourly Observations for July 10, 2021

Temp ( °F °C ) Dew Point ( °F °C ) Humidity (%) Winds ( mph kmh ) Pressure ( in mb ) Visibility ( mi km ) Precip ( " mm )
12:56 am 00:56 Clear 61 16 N/A N/A N N/A 30.08 1019 10 16 N/A
1:56 am 01:56 Clear 61 16 N/A N/A N N/A 30.07 1018 9 14 N/A
2:56 am 02:56 Clear 61 16 N/A N/A N N/A 30.07 1018 9 14 N/A
3:56 am 03:56 Clear 57 14 N/A N/A E 5 7 30.05 1018 7 11 N/A
4:56 am 04:56 Clear 57 14 N/A N/A E 6 9 30.03 1017 8 13 N/A
5:56 am 05:56 Clear 61 16 N/A N/A ESE 7 11 30.05 1018 10 16 N/A
6:56 am 06:56 Sunny 63 17.2 63 17.2 100 100 ESE 8 13 30.06 1018 10 16 N/A
7:56 am 07:56 Sunny 65 18.3 65 18.3 100 100 SE 10 17 30.06 1018 10 16 N/A
8:56 am 08:56 Sunny 67 19.4 67 19.4 100 100 SSE 10 17 30.06 1018 10 16 N/A
9:56 am 09:56 Sunny 68 20 68 20 100 100 SE 6 9 30.07 1018 10 16 N/A
10:56 am 10:56 Mostly Cloudy 68 20 68 20 100 100 SSE 8 13 30.07 1018 10 16 N/A
11:56 am 11:56 Mostly Cloudy with Light Rain 69 20.6 69 20.6 100 100 SSE 9 15 30.06 1018 10 16 0.00 0.00
12:56 pm 12:56 Mostly Cloudy 69 20.6 69 20.6 100 100 E 13 20 30.03 1017 10 16 0.00 0.00
1:56 pm 13:56 Cloudy 70 21.1 70 21.1 100 100 E 12 19 30.01 1016 10 16 N/A
2:56 pm 14:56 Cloudy 71 21.7 69 20.6 94 94 SSE 10 17 30.00 1016 10 16 N/A
3:30 pm 15:30 Cloudy 72 22 68 20 88 88 SE 6 9 29.98 1015 10 16 N/A
3:56 pm 15:56 Cloudy with Light Rain 71 21.7 70 21.1 96 96 ESE 7 11 30.02 1017 10 16 0.00 0.00
4:56 pm 16:56 Mostly Cloudy 71 21.7 71 21.7 100 100 E 8 13 29.98 1015 10 16 0.01 0.25
5:35 pm 17:35 Cloudy 70 21 70 21 100 100 E 10 17 29.95 1014 10 16 N/A
5:56 pm 17:56 Cloudy 70 21.1 70 21.1 100 100 E 9 15 29.97 1015 10 16 N/A
6:24 pm 18:24 Cloudy 72 22 70 21 94 94 E 8 13 29.94 1014 10 16 N/A
6:37 pm 18:37 Cloudy 70 21 70 21 100 100 E 8 13 29.95 1014 10 16 N/A
6:56 pm 18:56 Cloudy 70 21.1 70 21.1 100 100 E 5 7 29.96 1015 10 16 N/A
7:56 pm 19:56 Cloudy 70 21.1 70 21.1 100 100 E 7 11 29.97 1015 10 16 N/A
8:19 pm 20:19 Partly Cloudy 70 21 70 21 100 100 E 8 13 29.95 1014 10 16 N/A
8:56 pm 20:56 Mostly Sunny 69 20.6 69 20.6 100 100 E 6 9 29.97 1015 10 16 N/A
9:56 pm 21:56 Cloudy 68 20 N/A N/A E 6 9 29.98 1015 10 16 N/A
10:37 pm 22:37 Cloudy 68 20 N/A N/A E 8 13 29.95 1014 10 16 N/A
10:56 pm 22:56 Mostly Cloudy 68 20 N/A N/A E 7 11 29.97 1015 10 16 N/A
11:06 pm 23:06 Mostly Cloudy 70 21 70 21 100 100 E 7 11 29.95 1014 10 16 N/A
11:33 pm 23:33 Cloudy 68 20 68 20 100 100 E 9 15 29.93 1014 10 16 N/A
11:56 pm 23:56 Cloudy 68 20 68 20 100 100 E 10 17 29.94 1014 10 16 N/A

Powered by AerisWeather